Погода в Славгороде

Погода в Славгороде : погода сейчас, прогноз погоды и архив. Всё, что Вы хотите узнать о погоде в Славгороде!

Хотите узнать прогноз погоды в Славгороде? Тогда Вам сюда: Погода в Славгороде

Поиск расширенной информации на нашем сайте:

Полезная информация:

Другие новости

Новости СМИ2

Главная страница сайта

Новости сайта

03.07.2017

Напоминаем, что на нашем специализированном сайте Метеоцентр.Азия вы можете получить высокодетализированные автоматические прогнозы погоды по пунктам России, СНГ и мира в авиационном формате (включающие направление и скорость ветра, видимость, явления погоды, количество и форму облачности, нижнюю и верхнюю границу облачности).

Рекомендуем:

Погода в Славгороде - сегодня

Время (UTC), дата Ветер
(°,м/с) 
Видим.   Явления Облачность Т
(°С)
Тd
(°С)
f(%) Тe
(°С)
Pmin
(гПа)
dP
(гПа)
Po
(мм)
O2
(г/м3)
Тmin Tmax R s Состояние
почвы
03 22.03.19 260 (З) 3200 м  слаб. ливневой дождь  10/10 300 м кучево-дожд. 
[Cb cap]
+5.1 +4.5 96 +3  1016.4  -3.4  747  295           
06 22.03.19 290 (З) 7-10{12}  20000 м  в посл. час ливневой дождь  9/9 600 м кучево-дожд. 
[Cb calv]
+7 +5.6 91 +5  1015.4  -0.9  746  292  +4.3       
09 22.03.19 310 (СЗ) 9-17{17}  20000 м  в посл. час ливневой дождь  9/9 600 м кучево-дожд. 
[Cb calv]
+7.3 +3.3 76 +4  1015.2  -0.2  746  292           
12 22.03.19 340 (С) 11-19{23}  20000 м  {ливн. осадки}  8/8 1000 м 
[Sc]
+7.8 -6.4 36 +5  1017.3  2.1  747  293           
15 22.03.19 330 (СЗ) 9-17{20}  20000 м    3/3 1000 м 
[Sc]
+7 -9.8 29 +4  1018.7  1.4  749  295           
18 22.03.19 320 (СЗ) 7-12{18}  20000 м    9/9 600 м кучево-дожд. 
[Cb calv]
+5 -9.2 35 +2  1020.6  1.7  750  298    +8.3  0.5     
21 22.03.19 350 (С) 7-12{14}  20000 м    9/9 600 м 
[Sc]
+4.1 -8 41 +1  1021.3  0.6  750  299           
00 23.03.19 340 (С) 6{14}  20000 м    3/0 верхняя 
[Ci fib]
+1.8 -7.3 51 -1  1022.3  0.8  751  301           
03 23.03.19 340 (С) 6{11}  20000 м    ясно 
+0.2 -7.1 58 -3  1023  0.5  751  303           
06 23.03.19 350 (С) 6-11{13}  20000 м    8/8 600 м 
[Sc]
+0.7 -6.4 59 -3  1024.3  1.3  752  303  -0.3         
09 23.03.19 030 (СВ) 6{12}  20000 м    8/8 600 м 
[Sc]
+4.6 -4.9 50 +2  1024.7  0.7  753  299           
12 23.03.19 010 (С) 3{10}  20000 м    4/3 600 м верхняя 
[Sc|Ci sp]
+6.7 -4.4 45 +6  1024.3  -0.2  753  296           
15 23.03.19 350 (С) 20000 м    3/1 600 м верхняя 
[Sc|Ci sp]
+7.1 -3.8 46 +6  1023.2  -1  752  296           
18 23.03.19 360 (С) 20000 м    ясно 
+2.9 -2.8 66 +4  1023  -0.6  751  300    +7.7       
21 23.03.19 190 (Ю) 15000 м    8/8 600 м 
[Sc]
+0.7 -3.2 75 1021.7  -1.4  750  302           
00 24.03.19 200 (Ю) 20000 м    9/9 600 м 
[Sc]
+0.7 -3 76 -1  1018.6  -3  748  301           
03 24.03.19 220 (ЮЗ) 20000 м    9/9 600 м 
[Sc]
+2.4 -3.7 64 +1  1015.9  -2.6  746  298           
06 24.03.19 250 (З) 19000 м  {ливн. осадки}  9/9 600 м 
[Sc]
+1.4 -0.4 88 1014.7  -1.2  745  299  +0       
09 24.03.19 350 (С) 6-10{11}  20000 м    6/6 600 м 
[Sc]
+8.4 -1.7 49 +7  1013.6  -0.5  745  291           
12 24.03.19 310 (СЗ) 8-14{14}  20000 м    4/4 600 м 
[Sc]
+10.3 -3.8 37 +8  1012.5  -1  744  289           
15 24.03.19 320 (СЗ) 8-14{15}  20000 м    3/3 600 м 
[Sc]
+9 -8.6 28 +7  1012.1  -0.5  744  291           
18 24.03.19 310 (СЗ) 4{14}  20000 м    4/4 600 м 
[Sc]
+5 -6.3 44 +3  1013.1  0.7  744  295    +10.5       
21 24.03.19 300 (СЗ) 20000 м    ясно 
+1.6 -5.3 60 1013.8  0.4  745  299           
00 25.03.19 260 (З) 20000 м    ясно 
-0.5 -6.3 65 -1  1013.5  -0.4  744  301           
03 25.03.19 260 (З) 20000 м    3/3 600 м 
[Sc]
-1.8 -6.7 69 -1  1012.6  -1  743  302           
Время (UTC), дата Ветер
(°,м/с) 
Видим.   Явления Облачность Т
(°С)
Тd
(°С)
f(%) Тe
(°С)
Pmin
(гПа)
dP
(гПа)
Po
(мм)
O2
(г/м3)
Тmin Tmax R s Состояние
почвы

Для получения пояснительной информации подведите курсор к названию столбца.

ПОГОДА в Славгороде - архив

Всё, что Вы хотите узнать о погоде в Славгороде - удобно и подробно!

Выберите нужную дату (начиная с 1 января 2018* года) и нажмите кнопку "Найти".
Будут отображены архивные сводки погоды по пункту Славгород, начиная с указанной даты.


Отображать данные в формате CSV (для использования в таблицах Excel)


Внимание! Наш архив погоды предназначен исключительно для личного некоммерческого использования в познавательных целях. Если Вам необходимы официальные справки о состоянии погоды (для производственных, юридических, коммерческих и т.п. целей), обращайтесь в органы Росгидромета.

*Примечание: данная дата относится к архиву по метеостанциям СССР (Россия, СНГ, Балтия).
Архив по метеостанциям Зарубежной Европы и Азии (кроме Китая) хранится 10 дней, по другим регионам земного шара (Китай, Африка, Америка, Австралия, Океания) - 1 день.

Славгород - район местоположения метеостанции


Название, широта, долгота, высота метеостанции:
Славгород 53.4°ш. 31°д. 170 м над ур. моря [Беларусь]

Дополнительная информация

В oтличие oт бoльшинства пoгoдных сайтoв мы публикуем пoдрoбную метеoинфoрмацию в детальнoм прoфессиoнальнoм фoрмате.

Характеристики температуры и влажнoсти вoздуха измеряются на высoте 2 м в тени вдали oт зданий и деревьев.
Скoрoсть ветра измеряется на высoте 10 м (на урoвне рoста челoвека скoрoсть ветра ниже в 1.5-2 раза). Если метеoстанция нахoдится в гoрoде или в лесу, тo скoрoсть ветра занижена на 2-4 м/с пo сравнению с oткрытым местoм. Скoрoсть ветра над акватoриями крупных рек и oзёр, а также на вершинах хoлмoв на 2-5 м/с выше, чем в oбычных услoвиях.
Атмoсфернoе давление в разных тoчках местнoсти мoжет значительнo oтличаться oт давления на метеoстанции, в зависимoсти oт услoвий рельефа (при пoдъёме на 10 м давление пoнижается примернo на 1 мм рт.ст.).